This is the latest recevied weather packets stored in our database for station/object IA5ITY-13. If no packets are shown the sender has not sent any weather packets the latest 10 day(s).
| Time | Temp. | Humidity | Pressure | Rain* | Wind** | Luminosity | Snow |
|---|---|---|---|---|---|---|---|
| 1778136911 | 22.22° C | 63% | 1012.8 hPa | 0 mm | - | - | - |
| 1778136614 | 22.22° C | 63% | 1012.8 hPa | 0 mm | - | - | - |
| 1778136314 | 21.11° C | 65% | 1012.7 hPa | 0 mm | - | - | - |
| 1778136015 | 21.11° C | 70% | 1012.6 hPa | 0 mm | - | - | - |
| 1778135709 | 21.11° C | 73% | 1012.6 hPa | 0 mm | - | - | - |
| 1778135423 | 21.11° C | 82% | 1012.5 hPa | 0 mm | - | - | - |
| 1778135110 | 20° C | 88% | 1012.5 hPa | 0 mm | - | - | - |
| 1778134813 | 18.89° C | 86% | 1012.5 hPa | 0 mm | - | - | - |
| 1778134513 | 20° C | 90% | 1012.5 hPa | 0 mm | - | - | - |
| 1778133910 | 17.78° C | 94% | 1012.4 hPa | 0 mm | - | - | - |
| 1778133634 | 17.78° C | 94% | 1012.4 hPa | 0 mm | - | - | - |
| 1778133309 | 17.78° C | 94% | 1012.3 hPa | 0 mm | - | - | - |
| 1778133013 | 17.78° C | 99% | 1012.3 hPa | 0 mm | - | - | - |
| 1778132714 | 17.22° C | 96% | 1012.2 hPa | 0 mm | - | - | - |
| 1778132413 | 17.22° C | 99% | 1012.2 hPa | 0 mm | - | - | - |
| 1778132111 | 17.22° C | 99% | 1012.2 hPa | 0 mm | - | - | - |
| 1778131511 | 16.11° C | 99% | 1012.1 hPa | 0 mm | - | - | - |
| 1778131213 | 13.89° C | 99% | 1012 hPa | 0 mm | - | - | - |
| 1778130913 | 13.89° C | 99% | 1012 hPa | 0 mm | - | - | - |
| 1778130614 | 13.89° C | 99% | 1011.9 hPa | 0 mm | - | - | - |
| 1778130310 | 13.89° C | 99% | 1011.8 hPa | 0 mm | - | - | - |
| 1778130031 | 13.89° C | 99% | 1011.8 hPa | 0 mm | - | - | - |
| 1778129710 | 12.78° C | 99% | 1011.7 hPa | 0 mm | - | - | - |
| 1778129413 | 13.89° C | 99% | 1011.6 hPa | 0 mm | - | - | - |
| 1778129113 | 13.89° C | 99% | 1011.6 hPa | 0 mm | - | - | - |
* Rain latest hour (hover to see other rain measurements)
** Current wind speed in m/s (hover to see current wind gust speed)